Change the Weather History Date:

Saturday, February 23, 2013

  Actual Average (KHDO) Record (KHDO)
Temperature  
Mean Temperature 52 °F -  
Max Temperature 71 °F 66 °F 86 °F (2012)
Min Temperature 32 °F 43 °F 26 °F (2009)
Degree Days  
Heating Degree Days 14    
Growing Degree Days 2 (Base 50)    
Moisture  
Dew Point 26 °F    
Average Humidity 48    
Maximum Humidity 87    
Minimum Humidity 9    
Precipitation  
Precipitation 0.00 in - - ()
Sea Level Pressure  
Sea Level Pressure 29.97 in    
Wind  
Wind Speed 2 mph (NW)    
Max Wind Speed 17 mph    
Max Gust Speed 25 mph    
Visibility 10 miles    
Events      
Averages and records for this station are not official NWS values.
T = Trace of Precipitation, MM = Missing Value Source: NWS Daily Summary

Daily Weather History Graph

Daily Weather History Graph

Search for Another Location

Airport or City:

Trip Planner

Search our weather history database for the weather conditions in past years. The results will help you decide how hot, cold, wet, or windy it might be!

Date:

Astronomy

Feb. 23, 2013 Rise Set
Actual Time 7:08 AM CST 6:31 PM CST
Civil Twilight 6:44 AM CST 6:55 PM CST
Nautical Twilight 6:16 AM CST 7:23 PM CST
Astronomical Twilight 5:48 AM CST 7:51 PM CST
Moon 4:47 PM CST (2/23) 5:26 AM CST (2/23)
Length of Visible Light 12h 11m
Length of Day
11h 23m
Waxing Gibbous, 95% of the Moon is Illuminated
Feb 23
Waxing Gibbous
Feb 25
Full
Mar 4
Last Quarter
Mar 11
New
Mar 19
First Quarter

Hourly Weather History & Observations

Time (CST) Temp. Windchill Dew Point Humidity Pressure Visibility Wind Dir Wind Speed Gust Speed Precip Events Conditions
12:15 AM 44.6 °F - 30.2 °F 57% 30.00 in 10.0 mi Calm Calm - N/A   Clear
12:35 AM 42.8 °F - 30.2 °F 61% 30.00 in 10.0 mi Calm Calm - N/A   Clear
12:55 AM 42.8 °F - 30.2 °F 61% 30.00 in 10.0 mi Calm Calm - N/A   Clear
1:15 AM 41.0 °F - 30.2 °F 65% 30.00 in 10.0 mi Calm Calm - N/A   Clear
1:35 AM 42.8 °F - 30.2 °F 61% 30.01 in 10.0 mi Calm Calm - N/A   Clear
1:55 AM 41.0 °F - 30.2 °F 65% 30.01 in 10.0 mi Calm Calm - N/A   Clear
2:15 AM 41.0 °F - 30.2 °F 65% 30.01 in 10.0 mi Calm Calm - N/A   Clear
2:35 AM 41.0 °F - 30.2 °F 65% 30.00 in 10.0 mi Calm Calm - N/A   Clear
2:55 AM 41.0 °F - 30.2 °F 65% 30.00 in 10.0 mi Calm Calm - N/A   Clear
3:15 AM 41.0 °F - 30.2 °F 65% 29.99 in 10.0 mi Calm Calm - N/A   Clear
3:35 AM 37.4 °F - 30.2 °F 75% 29.99 in 10.0 mi Calm Calm - N/A   Clear
3:55 AM 41.0 °F - 30.2 °F 65% 30.00 in 10.0 mi Calm Calm - N/A   Clear
4:15 AM 39.2 °F - 28.4 °F 65% 30.00 in 10.0 mi Calm Calm - N/A   Clear
4:35 AM 37.4 °F 34.9 °F 30.2 °F 75% 30.00 in 10.0 mi North 3.5 mph - N/A   Clear
4:55 AM 37.4 °F - 28.4 °F 70% 30.00 in 10.0 mi Calm Calm - N/A   Clear
5:15 AM 35.6 °F 32.8 °F 28.4 °F 75% 30.00 in 10.0 mi NNW 3.5 mph - N/A   Clear
5:35 AM 35.6 °F - 28.4 °F 75% 30.01 in 10.0 mi Calm Calm - N/A   Clear
5:55 AM 35.6 °F - 28.4 °F 75% 30.00 in 10.0 mi Calm Calm - N/A   Clear
6:15 AM 35.6 °F - 28.4 °F 75% 30.00 in 10.0 mi Calm Calm - N/A   Clear
6:35 AM 32.0 °F 26.4 °F 28.4 °F 87% 30.01 in 10.0 mi North 5.8 mph - N/A   Clear
6:55 AM 32.0 °F 27.5 °F 28.4 °F 87% 30.02 in 10.0 mi North 4.6 mph - N/A   Clear
7:15 AM 32.0 °F 28.7 °F 28.4 °F 87% 30.01 in 10.0 mi North 3.5 mph - N/A   Clear
7:35 AM 32.0 °F 28.7 °F 28.4 °F 87% 30.02 in 10.0 mi NNW 3.5 mph - N/A   Clear
7:55 AM 33.8 °F 29.6 °F 28.4 °F 81% 30.03 in 10.0 mi NNW 4.6 mph - N/A   Clear
8:15 AM 35.6 °F 29.2 °F 30.2 °F 81% 30.03 in 10.0 mi NW 8.1 mph - N/A   Clear
8:35 AM 37.4 °F 33.8 °F 30.2 °F 75% 30.04 in 10.0 mi NW 4.6 mph - N/A   Clear
8:55 AM 41.0 °F 37.1 °F 30.2 °F 65% 30.05 in 10.0 mi NW 5.8 mph - N/A   Clear
9:15 AM 42.8 °F 40.1 °F 30.2 °F 61% 30.06 in 10.0 mi West 4.6 mph - N/A   Clear
9:35 AM 44.6 °F - 30.2 °F 57% 30.06 in 10.0 mi Calm Calm - N/A   Clear
9:55 AM 48.2 °F - 32.0 °F 54% 30.06 in 10.0 mi Calm Calm - N/A   Clear
10:15 AM 50.0 °F - 32.0 °F 50% 30.05 in 10.0 mi Calm Calm - N/A   Clear
10:35 AM 51.8 °F - 32.0 °F 47% 30.05 in 10.0 mi Calm Calm - N/A   Clear
10:55 AM 53.6 °F - 33.8 °F 47% 30.04 in 10.0 mi Calm Calm - N/A   Clear
11:15 AM 55.4 °F - 33.8 °F 44% 30.03 in 10.0 mi Calm Calm - N/A   Clear
11:35 AM 60.8 °F - 33.8 °F 36% 30.02 in 10.0 mi WNW 3.5 mph - N/A   Clear
11:55 AM 62.6 °F - 32.0 °F 32% 30.01 in 10.0 mi NNW 4.6 mph - N/A   Clear
12:15 PM 64.4 °F - 28.4 °F 26% 30.00 in 10.0 mi West 17.3 mph 25.3 mph N/A   Clear
12:35 PM 64.4 °F - 28.4 °F 26% 29.99 in 10.0 mi West 10.4 mph 23.0 mph N/A   Clear
12:55 PM 68.0 °F - 28.4 °F 23% 29.98 in 10.0 mi NW 11.5 mph - N/A   Clear
1:15 PM 69.8 °F - 28.4 °F 21% 29.97 in 10.0 mi West 9.2 mph 18.4 mph N/A   Clear
1:35 PM 69.8 °F - 24.8 °F 18% 29.95 in 10.0 mi West 17.3 mph 23.0 mph N/A   Clear
1:55 PM 69.8 °F - 26.6 °F 20% 29.94 in 10.0 mi NNW 11.5 mph - N/A   Clear
2:15 PM 69.8 °F - 24.8 °F 18% 29.94 in 10.0 mi NW 10.4 mph 19.6 mph N/A   Clear
2:35 PM 71.6 °F - 24.8 °F 17% 29.92 in 10.0 mi WNW 10.4 mph 17.3 mph N/A   Clear
2:55 PM 71.6 °F - 23.0 °F 16% 29.92 in 10.0 mi West 8.1 mph 16.1 mph N/A   Clear
3:15 PM 71.6 °F - 21.2 °F 15% 29.91 in 10.0 mi West 4.6 mph - N/A   Clear
3:35 PM 71.6 °F - 15.8 °F 12% 29.90 in 10.0 mi NW 10.4 mph 18.4 mph N/A   Clear
3:55 PM 71.6 °F - 12.2 °F 10% 29.89 in 10.0 mi WSW 5.8 mph - N/A   Clear
4:15 PM 71.6 °F - 12.2 °F 10% 29.88 in 10.0 mi North 6.9 mph - N/A   Clear
4:35 PM 71.6 °F - 10.4 °F 9% 29.88 in 10.0 mi WNW 3.5 mph - N/A   Clear
4:55 PM 71.6 °F - 10.4 °F 9% 29.88 in 10.0 mi Calm Calm - N/A   Clear
5:15 PM 71.6 °F - 10.4 °F 9% 29.88 in 10.0 mi Calm Calm - N/A   Clear
5:35 PM 71.6 °F - 10.4 °F 9% 29.87 in 10.0 mi Calm Calm - N/A   Clear
5:55 PM 68.0 °F - 10.4 °F 11% 29.88 in 10.0 mi WNW 3.5 mph - N/A   Clear
6:15 PM 68.0 °F - 10.4 °F 11% 29.88 in 10.0 mi Calm Calm - N/A   Clear
6:35 PM 64.4 °F - 17.6 °F 16% 29.88 in 10.0 mi Calm Calm - N/A   Clear
6:55 PM 59.0 °F - 21.2 °F 23% 29.89 in 10.0 mi Calm Calm - N/A   Clear
7:15 PM 55.4 °F - 23.0 °F 29% 29.90 in 10.0 mi Calm Calm - N/A   Clear
7:35 PM 50.0 °F - 24.8 °F 37% 29.90 in 10.0 mi Calm Calm - N/A   Clear
7:55 PM 51.8 °F - 23.0 °F 33% 29.91 in 10.0 mi Calm Calm - N/A   Clear
8:15 PM 50.0 °F - 24.8 °F 37% 29.92 in 10.0 mi Calm Calm - N/A   Clear
8:35 PM 48.2 °F - 26.6 °F 43% 29.92 in 10.0 mi Calm Calm - N/A   Clear
8:55 PM 44.6 °F - 26.6 °F 49% 29.93 in 10.0 mi Calm Calm - N/A   Clear
9:15 PM 44.6 °F - 26.6 °F 49% 29.93 in 10.0 mi Calm Calm - N/A   Clear
9:35 PM 44.6 °F - 24.8 °F 46% 29.93 in 10.0 mi Calm Calm - N/A   Clear
9:55 PM 42.8 °F - 26.6 °F 53% 29.92 in 10.0 mi Calm Calm - N/A   Clear
10:15 PM 41.0 °F - 26.6 °F 57% 29.93 in 10.0 mi Calm Calm - N/A   Clear
10:35 PM 41.0 °F 39.0 °F 26.6 °F 57% 29.92 in 10.0 mi SSE 3.5 mph - N/A   Clear
10:55 PM 41.0 °F - 28.4 °F 61% 29.91 in 10.0 mi Calm Calm - N/A   Clear
11:15 PM 41.0 °F - 30.2 °F 65% 29.92 in 10.0 mi Calm Calm - N/A   Clear
11:35 PM 39.2 °F - 30.2 °F 70% 29.91 in 10.0 mi Calm Calm - N/A   Clear
11:55 PM 37.4 °F - 30.2 °F 75% 29.91 in 10.0 mi Calm Calm - N/A   Clear